Jackson Hawkins Field, MS

12:37 PM CDT on July 22, 2017 (GMT -0500)
Hawkins

Weather History for KHKS - January, 2014

Change the Weather History Date:

Wednesday, January 29, 2014

  Actual Average (KJAN) Record (KJAN)
Temperature  
Mean Temperature 26 °F -  
Max Temperature 33 °F 60 °F 81 °F (1917)
Min Temperature 19 °F 38 °F 9 °F (1966)
Degree Days  
Heating Degree Days 39    
Moisture  
Dew Point 3 °F    
Average Humidity 41    
Maximum Humidity 71    
Minimum Humidity 27    
Precipitation  
Precipitation 0.00 in - - ()
Sea Level Pressure  
Sea Level Pressure 30.41 in    
Wind  
Wind Speed 3 mph (ENE)    
Max Wind Speed 7 mph    
Max Gust Speed -    
Visibility 10 miles    
Events      
Averages and records for this station are not official NWS values.
T = Trace of Precipitation, MM = Missing Value Source: NWS Daily Summary

Daily Weather History Graph

Daily Weather History Graph

Search for Another Location

Airport or City:

Trip Planner

Search our weather history database for the weather conditions in past years. The results will help you decide how hot, cold, wet, or windy it might be!

Date:

Astronomy

Jan. 29, 2014 Rise Set
Actual Time 6:56 AM CST 5:31 PM CST
Civil Twilight 6:30 AM CST 5:57 PM CST
Nautical Twilight 6:01 AM CST 6:26 PM CST
Astronomical Twilight 5:32 AM CST 6:55 PM CST
Moon 5:33 AM CST (1/29) 4:30 PM CST (1/29)
Length of Visible Light 11h 26m
Length of Day
10h 34m
Waning Crescent, 2% of the Moon is Illuminated
Jan 29
Waning Crescent
Jan 30
New
Feb 6
First Quarter
Feb 14
Full
Feb 22
Last Quarter

Hourly Weather History & Observations

Time (CST) Temp. Windchill Dew Point Humidity Pressure Visibility Wind Dir Wind Speed Gust Speed Precip Events Conditions
12:53 AM 21.0 °F 14.6 °F -0.9 °F 38% 30.42 in 10.0 mi Variable 4.6 mph - N/A   Clear
1:53 AM 21.0 °F 14.6 °F -0.0 °F 40% 30.42 in 10.0 mi Variable 4.6 mph - N/A   Clear
2:53 AM 21.0 °F 13.4 °F -0.9 °F 38% 30.42 in 10.0 mi NNE 5.8 mph - N/A   Clear
3:53 AM 19.9 °F - 1.0 °F 44% 30.41 in 10.0 mi Calm Calm - N/A   Clear
4:53 AM 19.9 °F 13.4 °F -0.0 °F 42% 30.42 in 10.0 mi North 4.6 mph - N/A   Clear
5:53 AM 19.0 °F 12.3 °F -0.9 °F 42% 30.43 in 10.0 mi NNE 4.6 mph - N/A   Clear
6:53 AM 19.0 °F 12.3 °F -0.9 °F 42% 30.44 in 10.0 mi Variable 4.6 mph - N/A   Clear
7:53 AM 19.9 °F 13.4 °F -0.0 °F 42% 30.46 in 10.0 mi North 4.6 mph - N/A   Clear
8:53 AM 21.9 °F 15.7 °F 1.9 °F 42% 30.48 in 10.0 mi ENE 4.6 mph - N/A   Clear
9:53 AM 25.0 °F 19.3 °F 3.9 °F 41% 30.48 in 10.0 mi East 4.6 mph - N/A   Clear
10:53 AM 28.0 °F 20.8 °F 3.0 °F 34% 30.48 in 10.0 mi NE 6.9 mph - N/A   Clear
11:53 AM 28.9 °F - 1.9 °F 32% 30.47 in 10.0 mi Calm Calm - N/A   Clear
12:53 PM 30.0 °F 26.5 °F 3.0 °F 32% 30.43 in 10.0 mi Variable 3.5 mph - N/A   Clear
1:53 PM 30.9 °F 27.5 °F 1.9 °F 29% 30.42 in 10.0 mi SE 3.5 mph - N/A   Clear
2:53 PM 33.1 °F 27.7 °F 1.9 °F 27% 30.40 in 10.0 mi ESE 5.8 mph - N/A   Clear
3:53 PM 33.1 °F 28.7 °F 1.9 °F 27% 30.38 in 10.0 mi SE 4.6 mph - N/A   Clear
4:53 PM 32.0 °F - 3.9 °F 31% 30.39 in 10.0 mi Calm Calm - N/A   Clear
5:53 PM 30.0 °F - 5.0 °F 35% 30.38 in 10.0 mi Calm Calm - N/A   Clear
6:53 PM 28.0 °F - 6.1 °F 39% 30.38 in 10.0 mi Calm Calm - N/A   Clear
7:53 PM 26.1 °F - 7.0 °F 44% 30.39 in 10.0 mi Calm Calm - N/A   Clear
8:53 PM 24.1 °F - 9.0 °F 53% 30.36 in 10.0 mi Calm Calm - N/A   Clear
9:53 PM 21.9 °F - 10.9 °F 63% 30.35 in 10.0 mi Calm Calm - N/A   Clear
10:53 PM 21.0 °F - 10.9 °F 65% 30.36 in 10.0 mi Calm Calm - N/A   Clear
11:53 PM 19.0 °F - 10.9 °F 71% 30.35 in 10.0 mi Calm Calm - N/A   Clear